Location: Siloam Springs
(36.1880°N, 94.5400°W)
Time: 19:44:54
(UTC-06:00)

ISS - Visible Passes

Search period start: 15 December 2017 00:00
Search period end: 25 December 2017 00:00
Orbit: 402 x 406 km, 51.6° (Epoch: 16 December)

Date Brightness Start Highest point End Pass type
(mag) Time Alt. Az. Time Alt. Az. Time Alt. Az.
15 Dec -3.0 18:42:45 10° WNW 18:45:57 51° SW 18:47:12 30° SSE visible
16 Dec -3.9 17:50:28 10° NW 17:53:45 72° NE 17:57:00 10° SE visible
17 Dec -0.9 18:35:22 10° W 18:37:43 18° SW 18:40:04 10° S visible
18 Dec -2.2 17:42:31 10° WNW 17:45:37 38° SW 17:48:40 10° SSE visible
20 Dec -0.4 17:35:24 10° W 17:37:16 14° SW 17:39:09 10° SSW visible
23 Dec -0.3 06:52:48 10° SSE 06:54:32 14° SE 06:56:16 10° E visible
